This is the latest recevied weather packets stored in our database for station/object N4QB-13. If no packets are shown the sender has not sent any weather packets the latest 10 day(s).
| Time | Temp. | Humidity | Pressure | Rain* | Wind** | Luminosity | Snow |
|---|---|---|---|---|---|---|---|
| 1777306769 | 23.89° C | 76% | 1017 hPa | 0 mm | - | 83 W/m² | - |
| 1777306467 | 23.89° C | 77% | 1017 hPa | 0 mm | - | 115 W/m² | - |
| 1777306161 | 23.89° C | 77% | 1017 hPa | 0 mm | - | 68 W/m² | - |
| 1777305856 | 23.33° C | 77% | 1016.8 hPa | 0 mm | - | 49 W/m² | - |
| 1777305553 | 23.33° C | 78% | 1016.8 hPa | 0 mm | - | 49 W/m² | - |
| 1777305249 | 22.78° C | 79% | 1017.1 hPa | 0 mm | - | 47 W/m² | - |
| 1777304943 | 22.78° C | 79% | 1017.1 hPa | 0 mm | - | 96 W/m² | - |
| 1777304640 | 22.78° C | 79% | 1017 hPa | 0 mm | - | 141 W/m² | - |
| 1777304337 | 22.78° C | 80% | 1017 hPa | 0 mm | - | 139 W/m² | - |
| 1777304034 | 23.33° C | 80% | 1017 hPa | 0 mm | - | 142 W/m² | - |
| 1777303730 | 22.78° C | 81% | 1016.8 hPa | 0 mm | - | 122 W/m² | - |
| 1777303428 | 22.78° C | 81% | 1016.9 hPa | 0 mm | - | 128 W/m² | - |
| 1777303125 | 23.33° C | 82% | 1016.9 hPa | 0 mm | - | 119 W/m² | - |
| 1777302824 | 22.78° C | 83% | 1016.6 hPa | 0 mm | - | 145 W/m² | - |
| 1777302520 | 22.78° C | 84% | 1016.7 hPa | 0 mm | - | 96 W/m² | - |
| 1777302219 | 22.22° C | 85% | 1016.9 hPa | 0 mm | - | 86 W/m² | - |
| 1777301916 | 21.67° C | 86% | 1016.7 hPa | 0 mm | - | 94 W/m² | - |
| 1777301613 | 21.67° C | 86% | 1017 hPa | 0 mm | - | 104 W/m² | - |
| 1777301310 | 21.67° C | 87% | 1016.9 hPa | 0 mm | - | 114 W/m² | - |
| 1777301007 | 21.67° C | 87% | 1016.8 hPa | 0 mm | - | 115 W/m² | - |
| 1777300704 | 21.67° C | 88% | 1016.8 hPa | 0 mm | - | 114 W/m² | - |
| 1777300402 | 21.11° C | 88% | 1016.7 hPa | 0 mm | - | 109 W/m² | - |
| 1777300100 | 21.11° C | 88% | 1016.4 hPa | 0 mm | - | 97 W/m² | - |
| 1777299795 | 21.11° C | 89% | 1016.6 hPa | 0 mm | - | 83 W/m² | - |
| 1777299493 | 21.11° C | 89% | 1016.7 hPa | 0 mm | - | 58 W/m² | - |
* Rain latest hour (hover to see other rain measurements)
** Current wind speed in m/s (hover to see current wind gust speed)